Terug naar catalogus

FENGYUN 1C DEB

ActiefPO
NORAD 30437·DEBRIS·🇨🇳 China

Gelanceerd May 10, 1999 vanaf Taiyuan Satellite Launch Center

Loading…

Volgende Passages (komende 24 uur)

TLE

VersSource: Space-Track

Epoch: Sep 14, 2026, 10:31 UTC

1 30437U 99025AEY 26257.43883763  .00016758  00000-0  13192-2 0  9991
2 30437  98.8930 319.2366 0022343 294.3375  77.7604 15.00715331 33040

Volg FENGYUN 1C DEB in realtime met AllMySat

Download on the App Store